QPF
0.00 0.00 0.00 0.00 0.00 0.00 0.00 0.00 0.00 0.00 0.00 0.00 0.00 0.00 0.00 0.00 0.00 0.00 0.00 0.00 0.00 0.00 0.00 0.00 0.00 0.00 0.00 0.00 0.00 0.00 0.00 0.00 0.00 0.00 0.00 0.00 0.00 0.00 0.00 0.00 0.00 0.00 0.00 0.00 0.00
0.00 0.00 0.00 0.00 0.00 0.00 0.00 0.00 0.00 0.00 0.00 0.00 0.00 0.00 0.00 0.00 0.00 0.00 0.00 0.00 0.00 0.00 0.00 0.00 0.00 0.00 0.00 0.00 0.00 0.00 0.00 0.00 0.00 0.00 0.00 0.00 0.00 0.00 0.00 0.00 0.00 0.00 0.00 0.00 0.00
0.00 0.00 0.00 0.00 0.00 0.00 0.00 0.00 0.00 0.00 0.00 0.00 0.00 0.00 0.00 0.00 0.00 0.00 0.00 0.00 0.00 0.00 0.00 0.00 0.00 0.00 0.00 0.00 0.00 0.00 0.00 0.00 0.00 0.00 0.00 0.00 0.00 0.00 0.00 0.00 0.00 0.00 0.00 0.00 0.00
0.00 0.00 0.00 0.00 0.00 0.00 0.00 0.00 0.00 0.00 0.00 0.00 0.00 0.00 0.00 0.00 0.00 0.00 0.00 0.00 0.00 0.00 0.00 0.00 0.00 0.00 0.00 0.00 0.00 0.00 0.00 0.00 0.00 0.00 0.00 0.00 0.00 0.00 0.00 0.00 0.00 0.00 0.00 0.00 0.00
0.00 0.00 0.00 0.00 0.00 0.00 0.00 0.00 0.00 0.00 0.00 0.00 0.00 0.00 0.00 0.00 0.00 0.00 0.00 0.00 0.00 0.00 0.00 0.00 0.00 0.00 0.00 0.00 0.00 0.00 0.00 0.00 0.00 0.00 0.00 0.00 0.00 0.00 0.00 0.00 0.00 0.00 0.00 0.00 0.00
0.00 0.00 0.00 0.00 0.00 0.00 0.00 0.00 0.00 0.00 0.00 0.00 0.00 0.00 0.00 0.00 0.00 0.00 0.00 0.00 0.00 0.00 0.00 0.00 0.00 0.00 0.00 0.00 0.00 0.00 0.00 0.00 0.00 0.00 0.00 0.00 0.00 0.00 0.00 0.00 0.00 0.00 0.00 0.00 0.00
0.00 0.00 0.00 0.00 0.00 0.00 0.00 0.00 0.00 0.00 0.00 0.00 0.00 0.00 0.00 0.00 0.00 0.00 0.00 0.00 0.00 0.00 0.00 0.00 0.00 0.00 0.00 0.00 0.00 0.00 0.00 0.00 0.00 0.00 0.00 0.00 0.00 0.00 0.00 0.00 0.00 0.00 0.00 0.00 0.00
0.00 0.00 0.00 0.00 0.00 0.00 0.00 0.00 0.00 0.00 0.00 0.00 0.00 0.00 0.00 0.00 0.00 0.00 0.00 0.00 0.00 0.00 0.00 0.00 0.00 0.00 0.00 0.00 0.00 0.00 0.00 0.00 0.00 0.00 0.00 0.00 0.00 0.00 0.00 0.00 0.00 0.00 0.00 0.00 0.00
0.00 0.00 0.00 0.00 0.00 0.00 0.00 0.00 0.00 0.00 0.00 0.00 0.00 0.00 0.00 0.00 0.00 0.00 0.00 0.00 0.00 0.00 0.00 0.00 0.00 0.00 0.00 0.00 0.00 0.00 0.00 0.00 0.00 0.00 0.00 0.00 0.00 0.00 0.00 0.00 0.00 0.00 0.00 0.00 0.00
0.00 0.00 0.00 0.00 0.00 0.00 0.00 0.00 0.00 0.00 0.00 0.00 0.00 0.00 0.00 0.00 0.00 0.00 0.00 0.00 0.00 0.00 0.00 0.00 0.00 0.00 0.00 0.00 0.00 0.00 0.00 0.00 0.00 0.00 0.00 0.00 0.00 0.00 0.00 0.00 0.00 0.00 0.00 0.00 0.00
0.00 0.00 0.00 0.00 0.00 0.00 0.00 0.00 0.00 0.00 0.00 0.00 0.00 0.00 0.00 0.00 0.00 0.00 0.00 0.00 0.00 0.00 0.00 0.00 0.00 0.00 0.00 0.00 0.00 0.00 0.00 0.00 0.00 0.00 0.00 0.00 0.00 0.00 0.00 0.00 0.00 0.00 0.00 0.00 0.00
0.00 0.00 0.00 0.00 0.00 0.00 0.00 0.00 0.00 0.00 0.00 0.00 0.00 0.00 0.00 0.00 0.00 0.00 0.00 0.00 0.00 0.00 0.00 0.00 0.00 0.00 0.00 0.00 0.00 0.00 0.00 0.00 0.00 0.00 0.00 0.00 0.00 0.00 0.00 0.00 0.00 0.00 0.00 0.00 0.00
0.00 0.00 0.00 0.00 0.00 0.00 0.00 0.00 0.00 0.00 0.00 0.00 0.00 0.00 0.00 0.00 0.00 0.00 0.00 0.00 0.00 0.00 0.00 0.00 0.00 0.00 0.00 0.00 0.00 0.00 0.00 0.00 0.00 0.00 0.00 0.00 0.00 0.00 0.00 0.00 0.00 0.00 0.00 0.00 0.00
0.00 0.00 0.00 0.00 0.00 0.00 0.00 0.00 0.00 0.00 0.00 0.00 0.00 0.00 0.00 0.00 0.00 0.00 0.00 0.00 0.00 0.00 0.00 0.00 0.00 0.00 0.00 0.00 0.00 0.00 0.00 0.00 0.00 0.00 0.00 0.00 0.00 0.00 0.00 0.00 0.00 0.00 0.00 0.00 0.00
0.00 0.00 0.00 0.00 0.00 0.00 0.00 0.00 0.00 0.00 0.00 0.00 0.00 0.00 0.00 0.00 0.00 0.00 0.00 0.00 0.00 0.00 0.00 0.00 0.00 0.00 0.00 0.00 0.00 0.00 0.00 0.00 0.00 0.00 0.00 0.00 0.00 0.00 0.00 0.00 0.00 0.00 0.00 0.00 0.00
0.00 0.00 0.00 0.00 0.00 0.00 0.00 0.00 0.00 0.00 0.00 0.00 0.00 0.00 0.00 0.00 0.00 0.00 0.00 0.00 0.00 0.00 0.00 0.00 0.00 0.00 0.00 0.00 0.00 0.00 0.00 0.00 0.00 0.00 0.00 0.00 0.00 0.00 0.00 0.00 0.00 0.00 0.00 0.00 0.00
0.00 0.00 0.00 0.00 0.00 0.00 0.00 0.00 0.00 0.00 0.00 0.00 0.00 0.00 0.00 0.00 0.00 0.00 0.00 0.00 0.00 0.00 0.00 0.00 0.00 0.00 0.00 0.00 0.00 0.00 0.00 0.00 0.00 0.00 0.00 0.00 0.00 0.00 0.00 0.00 0.00 0.00 0.00 0.00 0.00
0.00 0.00 0.00 0.00 0.00 0.00 0.00 0.00 0.00 0.01 0.00 0.00 0.00 0.00 0.00 0.00 0.00 0.00 0.00 0.00 0.00 0.00 0.00 0.00 0.00 0.00 0.00 0.00 0.00 0.00 0.00 0.00 0.00 0.00 0.00 0.00 0.00 0.00 0.00 0.00 0.00 0.00 0.00 0.00 0.00
0.00 0.00 0.00 0.00 0.00 0.00 0.00 0.00 0.01 0.00 0.00 0.00 0.00 0.00 0.00 0.00 0.00 0.00 0.00 0.00 0.00 0.00 0.00 0.00 0.00 0.00 0.00 0.00 0.00 0.00 0.00 0.00 0.00 0.00 0.00 0.00 0.00 0.00 0.00 0.00 0.00 0.00 0.00 0.00 0.00
0.00 0.00 0.00 0.00 0.00 0.00 0.00 0.00 0.01 0.00 0.00 0.00 0.00 0.00 0.00 0.00 0.00 0.00 0.00 0.00 0.00 0.00 0.00 0.00 0.00 0.00 0.00 0.00 0.00 0.00 0.00 0.00 0.00 0.00 0.00 0.00 0.00 0.00 0.00 0.00 0.00 0.00 0.00 0.00 0.00
0.00 0.00 0.00 0.00 0.00 0.00 0.00 0.00 0.00 0.00 0.00 0.00 0.00 0.00 0.00 0.00 0.00 0.00 0.00 0.00 0.00 0.00 0.00 0.00 0.00 0.00 0.00 0.00 0.00 0.00 0.00 0.00 0.00 0.00 0.00 0.00 0.00 0.00 0.00 0.00 0.00 0.00 0.00 0.00 0.00
0.00 0.00 0.00 0.00 0.00 0.00 0.00 0.00 0.01 0.00 0.00 0.00 0.00 0.00 0.00 0.00 0.00 0.00 0.00 0.00 0.00 0.00 0.00 0.00 0.00 0.00 0.00 0.00 0.00 0.00 0.00 0.00 0.00 0.00 0.00 0.00 0.00 0.00 0.00 0.00 0.00 0.00 0.00 0.00 0.00
0.00 0.00 0.00 0.00 0.00 0.00 0.00 0.03 0.03 0.00 0.00 0.00 0.00 0.00 0.00 0.00 0.00 0.00 0.00 0.00 0.00 0.00 0.00 0.00 0.00 0.00 0.00 0.00 0.00 0.00 0.00 0.00 0.00 0.00 0.00 0.00 0.00 0.00 0.00 0.00 0.00 0.00 0.00 0.00 0.00
0.00 0.00 0.00 0.00 0.00 0.00 0.00 0.01 0.00 0.00 0.00 0.00 0.00 0.00 0.00 0.00 0.00 0.00 0.00 0.00 0.00 0.00 0.00 0.00 0.00 0.00 0.00 0.00 0.00 0.00 0.00 0.00 0.00 0.00 0.00 0.00 0.00 0.00 0.00 0.00 0.00 0.00 0.00 0.00 0.00
0.00 0.00 0.00 0.00 0.00 0.00 0.00 0.00 0.00 0.00 0.00 0.00 0.00 0.00 0.00 0.00 0.00 0.00 0.00 0.00 0.00 0.00 0.00 0.00 0.00 0.00 0.00 0.00 0.00 0.00 0.00 0.00 0.00 0.00 0.00 0.00 0.00 0.00 0.00 0.00 0.00 0.00 0.00 0.00 0.00
0.00 0.00 0.00 0.00 0.00 0.00 0.00 0.00 0.00 0.00 0.00 0.00 0.00 0.00 0.00 0.00 0.00 0.00 0.00 0.00 0.00 0.00 0.00 0.00 0.00 0.00 0.00 0.00 0.00 0.00 0.00 0.00 0.00 0.00 0.00 0.00 0.00 0.00 0.00 0.00 0.00 0.00 0.00 0.00 0.00
0.00 0.00 0.00 0.00 0.00 0.00 0.00 0.00 0.00 0.00 0.00 0.00 0.00 0.00 0.00 0.00 0.00 0.00 0.00 0.00 0.00 0.00 0.00 0.00 0.00 0.00 0.00 0.00 0.00 0.00 0.00 0.00 0.00 0.00 0.00 0.00 0.00 0.00 0.00 0.00 0.00 0.00 0.00 0.00 0.00
MSLP
1019.77 1019.16 1018.82 1018.45 1018.12 1017.86 1017.57 1017.36 1017.08 1016.77 1016.46 1016.19 1015.92 1015.67 1015.53 1015.30 1014.94 1014.80 1013.92 1010.96 1010.83 1010.44 1010.92 1011.17 1011.10 1011.51 1011.81 1011.92 1011.57 1011.59 1012.25 1011.61 1010.71 1009.52 1008.09 1006.59 1005.99 1004.19 1004.89 1005.17 1004.16 1003.84 1004.19 1004.20 1004.38
1019.60 1019.15 1018.60 1018.23 1018.04 1017.71 1017.44 1017.22 1017.02 1016.67 1016.30 1016.01 1015.82 1015.60 1015.40 1015.27 1015.06 1014.00 1009.97 1010.01 1010.19 1010.28 1011.23 1011.39 1011.37 1011.44 1011.88 1011.72 1011.60 1011.54 1011.29 1010.39 1009.81 1008.82 1007.69 1007.35 1006.00 1005.42 1005.16 1005.94 1004.83 1004.69 1004.08 1004.05 1004.42
1019.64 1019.16 1018.64 1018.14 1017.77 1017.56 1017.16 1017.01 1016.76 1016.54 1016.26 1016.05 1015.82 1015.65 1015.52 1015.46 1014.85 1010.53 1008.26 1008.93 1009.80 1010.37 1010.72 1010.93 1011.09 1011.26 1011.65 1011.39 1011.15 1010.71 1010.32 1010.03 1008.81 1008.17 1007.63 1007.29 1006.24 1005.95 1005.82 1005.46 1005.36 1004.80 1004.97 1004.72 1004.91
1019.67 1019.13 1018.61 1018.11 1017.61 1017.35 1016.95 1016.56 1016.49 1016.34 1016.08 1015.86 1015.73 1015.56 1015.34 1015.34 1012.58 1007.96 1007.53 1007.59 1008.85 1009.78 1010.36 1010.50 1010.93 1011.26 1011.24 1011.00 1010.52 1010.42 1009.56 1009.13 1008.23 1007.66 1007.27 1006.26 1006.39 1005.44 1005.44 1004.82 1005.03 1005.15 1004.82 1005.03 1005.28
1019.54 1019.07 1018.60 1017.90 1017.43 1017.11 1016.78 1016.28 1015.97 1016.00 1015.90 1015.71 1015.47 1015.39 1015.23 1014.60 1011.04 1007.60 1007.52 1007.59 1008.79 1009.53 1010.03 1010.38 1010.66 1010.95 1010.85 1010.24 1009.80 1009.88 1009.09 1008.22 1007.61 1007.18 1007.04 1006.57 1006.37 1005.52 1004.79 1004.41 1004.70 1004.72 1004.99 1004.76 1004.92
1019.11 1018.83 1018.28 1017.80 1017.29 1016.73 1016.53 1016.15 1015.57 1015.41 1015.37 1015.36 1015.25 1015.23 1015.00 1012.84 1007.75 1007.29 1007.69 1008.24 1008.46 1009.20 1009.52 1009.62 1009.60 1009.88 1010.08 1009.33 1009.36 1008.23 1008.13 1007.51 1007.11 1006.45 1006.31 1006.31 1005.75 1005.08 1004.60 1004.47 1004.53 1004.66 1004.73 1004.92 1004.58
1018.79 1018.21 1017.87 1017.40 1016.88 1016.58 1015.94 1015.74 1015.42 1014.87 1014.73 1014.77 1014.94 1014.88 1014.03 1010.01 1007.51 1007.56 1007.81 1007.71 1008.01 1008.41 1008.83 1008.89 1008.67 1009.21 1009.16 1008.96 1007.81 1007.97 1007.96 1007.17 1006.78 1006.16 1005.85 1005.59 1005.69 1005.11 1004.36 1004.28 1004.39 1004.55 1004.72 1004.65 1004.73
1018.59 1018.01 1017.44 1017.02 1016.52 1016.02 1015.57 1015.05 1014.86 1014.56 1014.10 1014.27 1014.56 1014.50 1012.20 1007.84 1007.65 1007.78 1007.26 1007.47 1007.57 1007.89 1007.39 1007.10 1007.82 1008.53 1008.86 1008.03 1007.22 1007.43 1007.66 1007.23 1005.63 1005.67 1005.27 1005.26 1005.44 1004.76 1004.21 1004.31 1004.58 1004.49 1004.70 1004.64 1004.43
1018.17 1017.54 1017.01 1016.55 1015.92 1015.33 1014.80 1014.53 1013.93 1013.90 1013.66 1014.00 1014.46 1014.03 1010.40 1007.10 1006.96 1006.22 1006.32 1006.43 1006.48 1007.04 1006.95 1006.48 1007.27 1007.76 1007.64 1008.07 1007.42 1006.88 1007.19 1006.52 1005.53 1004.75 1004.88 1004.96 1005.19 1004.41 1003.94 1004.31 1004.46 1004.51 1004.57 1004.70 1004.54
1017.64 1017.12 1016.64 1016.06 1015.64 1015.09 1014.50 1013.56 1013.06 1013.41 1013.68 1014.04 1013.61 1013.41 1009.21 1006.58 1005.51 1005.25 1005.28 1005.83 1005.96 1006.09 1006.63 1006.36 1006.72 1007.23 1007.64 1007.97 1007.71 1007.05 1006.20 1005.65 1005.23 1004.81 1004.87 1005.12 1005.01 1004.15 1004.05 1004.25 1004.25 1004.52 1004.58 1004.80 1005.06
1017.24 1016.61 1016.10 1015.56 1014.93 1014.52 1014.41 1013.72 1013.18 1012.99 1012.89 1011.22 1009.98 1008.96 1006.95 1005.51 1004.79 1005.02 1004.94 1005.37 1005.68 1006.07 1006.67 1006.58 1007.09 1007.35 1007.11 1006.97 1006.56 1006.47 1006.18 1005.69 1005.13 1004.54 1004.75 1004.66 1004.82 1004.51 1004.53 1004.68 1004.80 1004.94 1005.13 1005.36 1005.59
1016.86 1016.23 1015.55 1014.73 1014.24 1013.86 1014.23 1013.58 1010.59 1009.83 1009.90 1008.64 1008.21 1007.71 1006.27 1005.74 1005.31 1004.75 1004.62 1005.52 1005.83 1006.38 1006.70 1007.34 1006.91 1006.20 1006.15 1006.22 1006.36 1006.18 1006.06 1005.61 1004.96 1004.45 1004.16 1004.23 1004.76 1004.56 1004.74 1004.78 1004.81 1005.10 1005.49 1005.51 1006.01
1016.43 1015.68 1014.96 1014.14 1013.46 1013.30 1013.07 1011.48 1009.25 1009.23 1009.16 1006.85 1006.39 1006.12 1005.46 1004.98 1004.71 1004.39 1004.65 1005.13 1005.77 1006.33 1006.63 1007.00 1005.98 1005.91 1006.02 1005.86 1006.06 1005.48 1005.48 1005.18 1005.09 1004.68 1004.78 1005.03 1005.51 1005.21 1004.61 1004.50 1004.56 1004.97 1005.56 1005.92 1006.63
1015.80 1015.16 1014.61 1013.75 1012.89 1012.58 1011.16 1008.44 1008.60 1009.02 1008.63 1006.35 1005.28 1004.26 1004.38 1004.45 1004.43 1004.04 1004.20 1004.98 1005.50 1006.02 1006.27 1006.36 1005.28 1005.39 1005.21 1005.07 1005.01 1004.83 1004.65 1004.92 1005.27 1005.91 1006.56 1006.29 1007.13 1006.43 1005.76 1005.64 1005.66 1005.62 1006.19 1006.74 1007.25
1015.27 1014.63 1014.17 1014.06 1013.50 1012.15 1008.95 1008.28 1008.29 1008.54 1007.73 1005.01 1004.17 1002.88 1003.49 1004.31 1004.03 1003.73 1003.93 1004.57 1005.14 1005.54 1006.13 1005.84 1005.15 1004.79 1004.40 1003.76 1003.72 1004.42 1004.45 1005.21 1006.03 1007.05 1007.49 1007.77 1008.14 1006.92 1006.43 1006.58 1006.58 1006.79 1007.02 1006.89 1007.18
1014.60 1013.88 1013.72 1013.02 1013.09 1009.87 1008.63 1008.59 1008.28 1008.63 1006.44 1004.11 1003.31 1003.25 1004.05 1004.14 1004.04 1003.74 1004.05 1004.42 1004.81 1005.36 1005.54 1005.49 1004.85 1004.31 1003.79 1003.55 1003.44 1004.04 1005.10 1006.30 1006.99 1008.06 1008.73 1008.26 1008.36 1007.51 1006.77 1006.57 1007.04 1007.26 1007.42 1007.35 1007.44
1013.67 1012.75 1012.95 1012.53 1010.34 1008.67 1008.89 1008.87 1008.92 1007.55 1004.96 1003.82 1003.41 1003.42 1003.78 1004.00 1004.14 1004.25 1004.27 1004.69 1005.16 1005.69 1005.59 1005.20 1004.70 1003.96 1003.66 1003.74 1004.11 1004.56 1005.97 1008.18 1009.11 1009.70 1009.60 1008.43 1008.22 1006.88 1005.94 1005.84 1006.47 1007.24 1007.49 1007.51 1007.54
1012.81 1011.61 1010.41 1010.07 1008.70 1009.17 1009.19 1009.39 1008.39 1006.04 1004.68 1003.01 1002.89 1003.27 1003.66 1003.66 1003.91 1004.07 1004.54 1005.03 1005.24 1005.62 1005.87 1005.80 1005.18 1004.21 1003.97 1004.15 1004.67 1005.36 1006.46 1008.58 1010.00 1010.84 1010.38 1009.03 1008.17 1006.94 1006.02 1006.35 1006.62 1006.91 1007.21 1007.29 1007.26
1012.18 1010.90 1009.85 1007.62 1007.86 1008.94 1009.60 1009.05 1007.03 1005.19 1003.68 1003.31 1002.77 1003.28 1003.55 1003.50 1003.57 1004.04 1004.58 1004.71 1004.63 1005.27 1005.87 1005.68 1005.38 1004.65 1004.45 1004.46 1004.98 1005.94 1007.11 1008.16 1009.76 1010.88 1011.20 1009.83 1008.24 1007.51 1007.07 1006.87 1007.13 1007.23 1007.31 1007.36 1007.35
1012.51 1011.18 1008.92 1006.15 1007.10 1008.38 1009.10 1007.99 1006.05 1003.98 1003.46 1003.28 1003.57 1003.47 1003.60 1003.35 1003.74 1004.26 1004.38 1004.83 1004.68 1004.49 1004.99 1005.69 1005.96 1005.60 1005.32 1005.10 1005.68 1006.12 1007.32 1008.86 1010.29 1011.80 1011.93 1010.18 1008.62 1007.60 1007.59 1007.29 1007.19 1007.31 1007.45 1007.53 1007.44
1012.68 1010.99 1006.45 1005.69 1006.82 1008.33 1008.28 1006.95 1005.19 1003.82 1003.28 1003.41 1003.73 1003.99 1004.19 1004.24 1004.40 1004.79 1005.12 1004.86 1004.81 1005.02 1005.29 1006.10 1006.83 1007.23 1006.66 1006.57 1006.68 1007.17 1007.73 1008.95 1010.40 1011.69 1012.25 1011.20 1009.14 1007.42 1007.40 1007.52 1007.49 1007.52 1007.30 1007.48 1008.25
1013.27 1011.10 1006.18 1006.17 1007.39 1007.65 1007.24 1005.84 1004.90 1003.85 1003.39 1003.37 1003.62 1004.19 1004.81 1004.99 1005.07 1005.34 1005.53 1005.39 1005.05 1005.61 1006.46 1007.14 1007.76 1008.40 1008.10 1007.57 1007.56 1007.78 1008.20 1008.93 1010.32 1011.90 1011.73 1010.90 1009.23 1007.73 1007.55 1007.60 1007.75 1007.94 1008.42 1008.42 1008.87
1013.74 1011.57 1006.57 1006.33 1007.43 1007.48 1006.42 1005.47 1004.97 1004.19 1003.53 1003.78 1004.41 1004.91 1005.56 1006.08 1006.23 1006.01 1006.03 1006.17 1005.89 1006.43 1006.99 1007.53 1008.71 1009.52 1009.27 1008.61 1008.28 1008.43 1008.42 1009.06 1009.89 1010.72 1010.84 1010.60 1009.37 1007.57 1007.46 1007.63 1008.51 1008.83 1009.12 1009.02 1009.47
1014.30 1012.37 1008.83 1007.21 1007.48 1007.63 1006.95 1005.76 1005.42 1004.77 1003.85 1004.21 1004.92 1005.42 1006.33 1007.16 1007.41 1007.30 1007.09 1007.23 1007.06 1007.39 1007.68 1007.97 1009.15 1009.69 1009.88 1009.57 1009.52 1009.35 1009.28 1009.40 1010.34 1010.97 1010.50 1009.66 1009.06 1008.16 1007.84 1008.38 1009.21 1009.49 1009.58 1009.98 1010.04
1014.05 1012.21 1010.80 1009.76 1008.52 1008.35 1007.53 1006.30 1005.83 1005.39 1005.06 1005.06 1006.03 1006.65 1007.37 1008.25 1008.58 1008.78 1008.80 1008.64 1008.43 1008.56 1008.87 1009.49 1010.19 1010.30 1010.06 1009.75 1009.55 1009.35 1009.18 1009.19 1009.78 1010.50 1010.25 1009.42 1009.11 1008.31 1008.55 1009.14 1009.76 1010.02 1010.24 1010.15 1010.16
1013.88 1012.52 1011.58 1010.76 1009.75 1008.93 1007.57 1006.96 1006.24 1006.15 1006.08 1006.42 1007.20 1007.93 1008.27 1009.07 1009.48 1009.87 1010.15 1010.26 1010.03 1010.00 1010.30 1010.68 1011.03 1010.93 1010.74 1010.11 1009.85 1009.45 1009.05 1008.79 1008.69 1009.00 1009.12 1009.00 1008.86 1008.97 1009.25 1009.75 1009.94 1010.43 1010.49 1010.42 1010.41
1013.61 1012.71 1012.46 1011.18 1010.29 1009.54 1008.78 1007.80 1006.67 1006.54 1007.19 1007.20 1007.77 1008.45 1009.16 1009.74 1009.93 1010.17 1010.42 1010.71 1010.95 1011.09 1011.28 1011.56 1011.61 1011.79 1011.58 1010.79 1010.11 1009.61 1007.89 1007.67 1007.58 1007.74 1007.80 1008.51 1009.41 1009.75 1010.06 1010.28 1010.46 1010.63 1010.62 1010.71 1010.94
Thickness
5626 5630 5631 5633 5635 5636 5636 5636 5636 5637 5638 5642 5645 5648 5650 5652 5655 5655 5656 5684 5682 5684 5677 5671 5668 5662 5661 5665 5674 5680 5646 5659 5679 5703 5727 5748 5751 5778 5776 5764 5785 5790 5789 5800 5811
5622 5624 5626 5629 5629 5631 5632 5632 5632 5632 5634 5636 5638 5641 5643 5645 5646 5649 5685 5682 5676 5673 5660 5650 5644 5643 5631 5643 5648 5644 5640 5663 5694 5714 5727 5727 5746 5754 5746 5743 5763 5769 5790 5800 5803
5619 5618 5621 5624 5626 5626 5628 5629 5629 5629 5629 5629 5631 5634 5636 5636 5636 5669 5691 5682 5670 5661 5653 5646 5641 5635 5622 5634 5634 5640 5637 5673 5701 5714 5724 5716 5733 5745 5732 5734 5751 5755 5765 5783 5785
5617 5617 5617 5619 5621 5622 5625 5627 5626 5625 5626 5626 5626 5628 5630 5629 5651 5686 5688 5685 5671 5660 5649 5641 5632 5622 5617 5619 5634 5628 5654 5673 5700 5712 5711 5712 5729 5737 5742 5750 5760 5766 5774 5774 5771
5617 5616 5616 5618 5618 5618 5620 5624 5625 5624 5623 5623 5624 5624 5624 5625 5646 5684 5683 5679 5666 5656 5644 5635 5626 5620 5617 5625 5634 5631 5656 5680 5700 5710 5706 5721 5724 5735 5744 5761 5761 5767 5767 5775 5780
5619 5617 5618 5616 5616 5616 5616 5618 5623 5623 5623 5621 5621 5620 5618 5628 5676 5681 5676 5669 5664 5653 5644 5638 5634 5632 5627 5637 5638 5662 5669 5684 5694 5706 5711 5707 5716 5725 5743 5756 5756 5758 5762 5766 5779
5620 5620 5619 5617 5616 5615 5615 5616 5618 5623 5623 5621 5618 5616 5621 5645 5674 5674 5671 5668 5666 5660 5647 5648 5650 5642 5643 5643 5665 5666 5659 5673 5685 5699 5705 5714 5698 5713 5746 5751 5748 5751 5756 5764 5768
5619 5619 5619 5617 5617 5616 5615 5617 5618 5620 5623 5621 5617 5614 5624 5670 5670 5668 5671 5667 5667 5664 5665 5669 5660 5647 5644 5658 5666 5658 5658 5652 5687 5700 5712 5709 5689 5722 5741 5739 5739 5747 5750 5757 5765
5618 5620 5620 5619 5619 5621 5621 5619 5621 5620 5620 5618 5612 5610 5630 5671 5667 5676 5676 5669 5671 5667 5670 5678 5669 5649 5656 5646 5642 5654 5639 5654 5675 5700 5705 5704 5693 5722 5736 5734 5733 5739 5742 5749 5755
5620 5619 5619 5619 5617 5616 5620 5626 5625 5620 5615 5612 5614 5609 5643 5661 5674 5679 5681 5674 5667 5670 5663 5668 5658 5650 5643 5634 5620 5645 5665 5674 5678 5699 5701 5694 5697 5718 5731 5728 5729 5733 5737 5740 5744
5619 5620 5619 5619 5620 5618 5616 5619 5624 5622 5614 5627 5638 5641 5657 5671 5679 5672 5678 5670 5667 5663 5643 5657 5640 5636 5651 5658 5665 5666 5664 5667 5680 5698 5690 5692 5696 5706 5713 5718 5722 5726 5728 5729 5732
5618 5618 5619 5623 5622 5621 5613 5609 5637 5642 5631 5643 5646 5645 5660 5665 5656 5666 5677 5655 5652 5638 5649 5639 5635 5661 5669 5667 5664 5662 5656 5661 5678 5695 5696 5687 5685 5702 5706 5708 5712 5713 5713 5718 5721
5616 5618 5620 5623 5624 5622 5617 5625 5644 5643 5627 5652 5652 5651 5655 5663 5657 5659 5665 5657 5647 5639 5643 5633 5651 5665 5663 5660 5656 5661 5655 5667 5670 5688 5690 5684 5670 5690 5706 5715 5718 5714 5711 5711 5706
5615 5617 5617 5620 5627 5623 5630 5649 5645 5640 5611 5639 5649 5658 5660 5660 5649 5670 5670 5657 5648 5639 5642 5640 5662 5657 5657 5658 5665 5657 5679 5677 5670 5659 5647 5670 5629 5661 5686 5693 5695 5699 5696 5695 5695
5613 5614 5615 5612 5613 5620 5642 5646 5644 5636 5597 5651 5652 5677 5664 5648 5654 5656 5669 5657 5640 5640 5643 5638 5649 5651 5652 5668 5677 5661 5677 5673 5669 5649 5649 5651 5632 5653 5680 5678 5679 5680 5683 5687 5690
5611 5613 5610 5614 5610 5634 5641 5639 5635 5608 5596 5646 5659 5653 5644 5646 5648 5656 5652 5659 5655 5644 5647 5642 5662 5663 5663 5672 5676 5675 5662 5650 5647 5636 5617 5649 5636 5637 5663 5669 5669 5676 5677 5681 5683
5610 5615 5610 5611 5625 5638 5635 5628 5600 5592 5646 5644 5642 5647 5642 5638 5640 5641 5639 5632 5623 5617 5624 5639 5647 5662 5667 5657 5660 5654 5631 5601 5606 5600 5608 5651 5632 5641 5676 5675 5670 5665 5667 5671 5674
5609 5617 5624 5623 5632 5627 5625 5607 5594 5627 5630 5658 5654 5646 5634 5641 5640 5641 5630 5619 5628 5627 5618 5613 5615 5649 5658 5652 5644 5642 5633 5599 5594 5590 5607 5633 5625 5643 5665 5665 5666 5667 5664 5666 5670
5603 5613 5620 5635 5631 5621 5606 5589 5603 5627 5647 5641 5647 5631 5630 5641 5641 5637 5627 5625 5633 5629 5611 5614 5621 5648 5651 5655 5651 5634 5616 5627 5607 5609 5594 5611 5638 5645 5651 5652 5653 5654 5658 5658 5659
5592 5598 5615 5637 5629 5614 5596 5594 5614 5645 5645 5642 5622 5631 5620 5632 5632 5629 5628 5628 5632 5641 5637 5624 5611 5632 5639 5647 5642 5637 5635 5599 5593 5584 5581 5606 5623 5622 5627 5635 5642 5644 5645 5648 5651
5577 5590 5625 5632 5621 5599 5587 5598 5622 5640 5641 5628 5622 5619 5621 5622 5626 5614 5619 5628 5632 5629 5633 5621 5610 5610 5624 5619 5613 5614 5610 5606 5597 5580 5559 5564 5600 5635 5626 5625 5628 5633 5641 5641 5630
5557 5574 5618 5617 5592 5591 5592 5612 5620 5629 5635 5631 5629 5624 5616 5617 5618 5615 5609 5616 5632 5625 5609 5609 5595 5588 5599 5613 5617 5612 5603 5599 5568 5571 5575 5574 5587 5629 5627 5626 5621 5621 5618 5619 5619
5537 5555 5602 5604 5578 5582 5601 5613 5610 5613 5622 5619 5612 5613 5610 5604 5602 5610 5609 5612 5619 5611 5606 5603 5579 5569 5580 5592 5595 5593 5604 5599 5584 5573 5574 5571 5576 5629 5624 5623 5608 5603 5605 5607 5606
5521 5540 5570 5583 5580 5582 5587 5598 5597 5604 5616 5615 5608 5606 5597 5590 5590 5595 5598 5598 5607 5604 5603 5599 5578 5574 5563 5576 5573 5573 5581 5585 5574 5557 5570 5576 5587 5605 5611 5603 5594 5594 5596 5592 5593
5511 5533 5547 5548 5563 5562 5573 5587 5584 5587 5600 5603 5593 5592 5586 5576 5574 5576 5576 5579 5588 5588 5584 5575 5568 5573 5577 5578 5575 5573 5577 5579 5572 5566 5560 5582 5578 5595 5590 5587 5588 5585 5584 5590 5588
5501 5523 5526 5534 5541 5551 5566 5570 5575 5577 5582 5581 5575 5576 5575 5568 5567 5561 5559 5558 5564 5567 5565 5559 5556 5563 5560 5568 5565 5563 5570 5574 5581 5575 5575 5583 5583 5580 5581 5580 5577 5578 5579 5579 5579
5496 5506 5507 5522 5533 5537 5544 5556 5570 5572 5569 5573 5568 5565 5561 5560 5560 5558 5557 5553 5551 5554 5549 5548 5547 5544 5539 5553 5556 5545 5571 5572 5578 5582 5585 5573 5566 5569 5567 5568 5567 5567 5568 5567 5565